Weather History for Noatak, AK

Change the Weather History Date:

Friday, October 28, 2011

  Actual Average Record
Temperature  
Mean Temperature 11 °F -  
Max Temperature 19 °F 19 °F 37 °F (1996)
Min Temperature 3 °F 9 °F -23 °F (2007)
Degree Days  
Heating Degree Days 54    
Moisture  
Dew Point 6 °F    
Average Humidity 75    
Maximum Humidity 85    
Minimum Humidity 63    
Precipitation  
Precipitation 0.00 in - - ()
Sea Level Pressure  
Sea Level Pressure 29.45 in    
Wind  
Wind Speed 7 mph (North)    
Max Wind Speed 10 mph    
Max Gust Speed -    
Visibility 10 miles    
Events      
Averages and records for this station are not official NWS values.
T = Trace of Precipitation, MM = Missing Value Source: NWS Daily Summary

Daily Weather History Graph

Daily Weather History Graph

Search for Another Location

Airport:

Trip Planner

Search our weather history database for the weather conditions in past years. The results will help you decide how hot, cold, wet, or windy it might be!

Date:

Astronomy

Oct. 28, 2011 Rise Set
Actual Time 10:43 AM AKDT 6:26 PM AKDT
Civil Twilight 9:42 AM AKDT 7:27 PM AKDT
Nautical Twilight 8:37 AM AKDT 8:32 PM AKDT
Astronomical Twilight 7:33 AM AKDT 9:35 PM AKDT
Moon 4:03 PM AKDT (10/28) 5:08 PM AKDT (10/28)
Length of Visible Light 9h 45m
Length of Day
7h 43m
Waxing Crescent, 6% of the Moon is Illuminated
Oct 28
Waxing Crescent
Nov 2
First Quarter
Nov 10
Full
Nov 18
Last Quarter
Nov 24
New

Hourly Weather History & Observations

Time (AKDT) Temp. Windchill Dew Point Humidity Pressure Visibility Wind Dir Wind Speed Gust Speed Precip Events Conditions
12:16 AM 17.6 °F 7.3 °F 10.4 °F 73% 29.52 in 10.0 mi North 8.1 mph - N/A   Overcast
12:36 AM 15.8 °F 6.1 °F 10.4 °F 79% 29.52 in 10.0 mi North 6.9 mph - N/A   Partly Cloudy
12:56 AM 15.8 °F 5.1 °F 10.4 °F 79% 29.51 in 10.0 mi North 8.1 mph - N/A   Clear
1:16 AM 12.2 °F 0.7 °F 8.6 °F 85% 29.51 in 10.0 mi North 8.1 mph - N/A   Partly Cloudy
1:36 AM 15.8 °F 6.1 °F 10.4 °F 79% 29.51 in 10.0 mi North 6.9 mph - N/A   Scattered Clouds
2:16 AM 8.6 °F -3.7 °F 3.2 °F 79% 29.50 in 10.0 mi North 8.1 mph - N/A   Partly Cloudy
2:36 AM 8.6 °F -2.6 °F 3.2 °F 79% 29.50 in 10.0 mi NNW 6.9 mph - N/A   Clear
2:56 AM 8.6 °F -4.7 °F 3.2 °F 79% 29.50 in 10.0 mi North 9.2 mph - N/A   Clear
3:16 AM 10.4 °F -1.5 °F 5.0 °F 79% 29.49 in 10.0 mi North 8.1 mph - N/A   Clear
3:36 AM 10.4 °F 0.8 °F 5.0 °F 79% 29.49 in 10.0 mi North 5.8 mph - N/A   Clear
3:56 AM 10.4 °F -1.5 °F 6.8 °F 85% 29.49 in 10.0 mi North 8.1 mph - N/A   Mostly Cloudy
4:16 AM 15.8 °F 5.1 °F 10.4 °F 79% 29.48 in 10.0 mi North 8.1 mph - N/A   Overcast
4:36 AM 15.8 °F 5.1 °F 10.4 °F 79% 29.48 in 10.0 mi North 8.1 mph - N/A   Overcast
4:56 AM 15.8 °F 5.1 °F 10.4 °F 79% 29.48 in 10.0 mi North 8.1 mph - N/A   Overcast
5:16 AM 15.8 °F 6.1 °F 8.6 °F 73% 29.47 in 10.0 mi NNW 6.9 mph - N/A   Overcast
5:36 AM 14.0 °F 3.9 °F 6.8 °F 73% 29.47 in 10.0 mi NNW 6.9 mph - N/A   Overcast
5:56 AM 12.2 °F 1.7 °F 6.8 °F 79% 29.46 in 10.0 mi North 6.9 mph - N/A   Overcast
6:16 AM 12.2 °F 2.9 °F 6.8 °F 79% 29.46 in 10.0 mi North 5.8 mph - N/A   Overcast
6:36 AM 15.8 °F 5.1 °F 8.6 °F 73% 29.45 in 10.0 mi North 8.1 mph - N/A   Overcast
7:16 AM 15.8 °F 5.1 °F 8.6 °F 73% 29.45 in 10.0 mi North 8.1 mph - N/A   Overcast
7:36 AM 14.0 °F 5.1 °F 6.8 °F 73% 29.45 in 10.0 mi North 5.8 mph - N/A   Overcast
7:56 AM 12.2 °F 1.7 °F 6.8 °F 79% 29.45 in 10.0 mi NNE 6.9 mph - N/A   Overcast
8:16 AM 15.8 °F 4.2 °F 8.6 °F 73% 29.45 in 10.0 mi North 9.2 mph - N/A   Mostly Cloudy
8:36 AM 15.8 °F 5.1 °F 8.6 °F 73% 29.45 in 10.0 mi NNE 8.1 mph - N/A   Partly Cloudy
8:56 AM 14.0 °F 2.9 °F 6.8 °F 73% 29.45 in 10.0 mi North 8.1 mph - N/A   Clear
9:16 AM 12.2 °F -1.0 °F 6.8 °F 79% 29.44 in 10.0 mi North 10.4 mph - N/A   Clear
9:36 AM 12.2 °F 4.3 °F 6.8 °F 79% 29.44 in 10.0 mi NNW 4.6 mph - N/A   Partly Cloudy
9:56 AM 10.4 °F 0.8 °F 6.8 °F 85% 29.44 in 10.0 mi NNW 5.8 mph - N/A   Clear
10:16 AM 12.2 °F 1.7 °F 6.8 °F 79% 29.44 in 10.0 mi NNW 6.9 mph - N/A   Clear
10:36 AM 12.2 °F 1.7 °F 6.8 °F 79% 29.45 in 10.0 mi NNE 6.9 mph - N/A   Scattered Clouds
10:56 AM 12.2 °F 1.7 °F 6.8 °F 79% 29.45 in 10.0 mi North 6.9 mph - N/A   Scattered Clouds
11:16 AM 15.8 °F 5.1 °F 8.6 °F 73% 29.44 in 10.0 mi North 8.1 mph - N/A   Mostly Cloudy
11:36 AM 14.0 °F 2.0 °F 6.8 °F 73% 29.44 in 10.0 mi North 9.2 mph - N/A   Partly Cloudy
11:56 AM 14.0 °F 1.2 °F 6.8 °F 73% 29.44 in 10.0 mi North 10.4 mph - N/A   Clear
12:16 PM 15.8 °F 3.4 °F 6.8 °F 68% 29.44 in 10.0 mi North 10.4 mph - N/A   Partly Cloudy
12:36 PM 15.8 °F 4.2 °F 8.6 °F 73% 29.44 in 10.0 mi NNE 9.2 mph - N/A   Partly Cloudy
12:56 PM 17.6 °F 8.2 °F 6.8 °F 63% 29.45 in 10.0 mi NNE 6.9 mph - N/A   Clear
1:16 PM 15.8 °F 4.2 °F 8.6 °F 73% 29.44 in 10.0 mi North 9.2 mph - N/A   Clear
1:36 PM 15.8 °F 4.2 °F 6.8 °F 68% 29.45 in 10.0 mi NNE 9.2 mph - N/A   Clear
2:16 PM 17.6 °F 9.3 °F 8.6 °F 68% 29.44 in 10.0 mi NNE 5.8 mph - N/A   Clear
2:36 PM 19.4 °F 9.5 °F 8.6 °F 63% 29.44 in 10.0 mi NNE 8.1 mph - N/A   Clear
2:56 PM 19.4 °F 10.4 °F 8.6 °F 63% 29.44 in 10.0 mi NNE 6.9 mph - N/A   Clear
3:16 PM 17.6 °F 8.2 °F 6.8 °F 63% 29.44 in 10.0 mi NE 6.9 mph - N/A   Clear
3:36 PM 17.6 °F 7.3 °F 8.6 °F 68% 29.44 in 10.0 mi NE 8.1 mph - N/A   Clear
3:56 PM 15.8 °F 7.2 °F 8.6 °F 73% 29.43 in 10.0 mi SE 5.8 mph - N/A   Clear
4:16 PM 15.8 °F 8.6 °F 6.8 °F 68% 29.44 in 10.0 mi East 4.6 mph - N/A   Clear
4:36 PM 15.8 °F 10.2 °F 6.8 °F 68% 29.43 in 10.0 mi East 3.5 mph - N/A   Clear
4:56 PM 15.8 °F - 6.8 °F 68% 29.43 in 10.0 mi Calm Calm - N/A   Clear
5:16 PM 14.0 °F - 6.8 °F 73% 29.43 in 10.0 mi Calm Calm - N/A   Clear
5:36 PM 10.4 °F - 3.2 °F 73% 29.42 in 10.0 mi Calm Calm - N/A   Clear
5:56 PM 10.4 °F - 6.8 °F 85% 29.42 in 10.0 mi Calm Calm - N/A   Clear
6:16 PM 8.6 °F 2.0 °F 3.2 °F 79% 29.43 in 10.0 mi North 3.5 mph - N/A   Clear
6:36 PM 10.4 °F 0.8 °F 3.2 °F 73% 29.43 in 10.0 mi NE 5.8 mph - N/A   Clear
6:56 PM 14.0 °F 5.1 °F 5.0 °F 67% 29.43 in 10.0 mi NNE 5.8 mph - N/A   Clear
7:16 PM 6.8 °F -3.5 °F -2.2 °F 67% 29.42 in 10.0 mi North 5.8 mph - N/A   Clear
7:36 PM 8.6 °F -3.7 °F 1.4 °F 73% 29.42 in 10.0 mi North 8.1 mph - N/A   Clear
7:56 PM 6.8 °F -3.5 °F 1.4 °F 79% 29.42 in 10.0 mi North 5.8 mph - N/A   Clear
8:16 PM 5.0 °F -9.1 °F -0.4 °F 78% 29.43 in 10.0 mi NNW 9.2 mph - N/A   Clear
8:36 PM 5.0 °F -8.1 °F -0.4 °F 78% 29.43 in 10.0 mi NNW 8.1 mph - N/A   Clear
8:56 PM 3.2 °F -7.8 °F -2.2 °F 78% 29.43 in 10.0 mi North 5.8 mph - N/A   Clear
9:16 PM 8.6 °F -4.7 °F 1.4 °F 73% 29.43 in 10.0 mi North 9.2 mph - N/A   Clear
9:36 PM 6.8 °F -4.8 °F 1.4 °F 79% 29.43 in 10.0 mi North 6.9 mph - N/A   Clear
9:56 PM 3.2 °F -9.1 °F -2.2 °F 78% 29.43 in 10.0 mi North 6.9 mph - N/A   Clear
10:16 PM 3.2 °F -11.3 °F -0.4 °F 85% 29.43 in 10.0 mi NNW 9.2 mph - N/A   Clear
10:36 PM 3.2 °F -11.3 °F -0.4 °F 85% 29.43 in 10.0 mi North 9.2 mph - N/A   Clear
10:56 PM 8.6 °F -3.7 °F 1.4 °F 73% 29.43 in 10.0 mi NNE 8.1 mph - N/A   Clear
11:16 PM 8.6 °F -2.6 °F 1.4 °F 73% 29.43 in 10.0 mi NNE 6.9 mph - N/A   Clear
11:36 PM 6.8 °F -5.9 °F -0.4 °F 72% 29.43 in 10.0 mi North 8.1 mph - N/A   Clear
11:56 PM 6.8 °F -2.0 °F -0.4 °F 72% 29.44 in 10.0 mi North 4.6 mph - N/A   Clear